Wetterdaten: Sonntag, 03.02.2008
Datum Zeit Temp. a Sch. Temp. a Son. Temp. a Bod. Feuchte a. Luftdruck Regen Wind Richtung Richtung Sonnenschein Helligkeit Taupunkt Windchill
03.02.2008 00:02 -3,8 C -4,9 C -4,8 C 89 % 1020 hPa 0,0 l/m 0,0 m/s (0 Bft) NW 315 0 min 0 lux -5,3 C -3,8 C
03.02.2008 00:07 -3,7 C -4,9 C -4,9 C 89 % 1020 hPa 0,0 l/m 0,0 m/s (0 Bft) NW 315 0 min 0 lux -5,2 C -3,7 C
03.02.2008 00:12 -3,6 C -5,0 C -4,8 C 89 % 1020 hPa 0,0 l/m 0,0 m/s (0 Bft) NW 315 0 min 0 lux -5,1 C -3,6 C
03.02.2008 00:17 -3,8 C -5,0 C -4,9 C 89 % 1020 hPa 0,0 l/m 0,0 m/s (0 Bft) NW 315 0 min 0 lux -5,3 C -3,8 C
03.02.2008 00:22 -3,9 C -5,0 C -5,1 C 88 % 1020 hPa 0,0 l/m 0,0 m/s (0 Bft) NW 315 0 min 0 lux -5,6 C -3,9 C
03.02.2008 00:27 -3,9 C -5,0 C -5,1 C 88 % 1020 hPa 0,0 l/m 0,0 m/s (0 Bft) NW 315 0 min 0 lux -5,6 C -3,9 C
03.02.2008 00:32 -3,9 C -5,1 C -5,1 C 88 % 1020 hPa 0,0 l/m 0,0 m/s (0 Bft) NW 315 0 min 0 lux -5,6 C -3,9 C
03.02.2008 00:37 -4,1 C -5,2 C -5,1 C 88 % 1020 hPa 0,0 l/m 0,0 m/s (0 Bft) NW 315 0 min 0 lux -5,8 C -4,1 C
03.02.2008 00:42 -4,1 C -5,2 C -5,1 C 88 % 1020 hPa 0,0 l/m 0,0 m/s (0 Bft) NW 315 0 min 0 lux -5,8 C -4,1 C
03.02.2008 00:47 -4,2 C -5,3 C -5,5 C 88 % 1020 hPa 0,0 l/m 0,0 m/s (0 Bft) NW 315 0 min 0 lux -5,9 C -4,2 C
03.02.2008 00:52 -4,0 C -5,3 C -5,3 C 88 % 1020 hPa 0,0 l/m 0,0 m/s (0 Bft) NW 315 0 min 0 lux -5,7 C -4,0 C
03.02.2008 00:57 -4,5 C -5,3 C -5,2 C 87 % 1020 hPa 0,0 l/m 0,0 m/s (0 Bft) NW 315 0 min 0 lux -6,3 C -4,5 C
03.02.2008 01:02 -4,1 C -5,4 C -5,3 C 88 % 1020 hPa 0,0 l/m 0,0 m/s (0 Bft) NW 315 0 min 0 lux -5,8 C -4,1 C
03.02.2008 01:07 -4,2 C -5,4 C -5,7 C 87 % 1020 hPa 0,0 l/m 0,0 m/s (0 Bft) NW 315 0 min 0 lux -6,0 C -4,2 C
03.02.2008 01:12 -4,6 C -5,5 C -5,6 C 87 % 1020 hPa 0,0 l/m 0,0 m/s (0 Bft) NW 315 0 min 0 lux -6,4 C -4,6 C
03.02.2008 01:17 -4,5 C -5,5 C -5,6 C 87 % 1020 hPa 0,0 l/m 0,0 m/s (0 Bft) NW 315 0 min 0 lux -6,3 C -4,5 C
03.02.2008 01:22 -4,4 C -5,5 C -5,6 C 87 % 1020 hPa 0,0 l/m 0,0 m/s (0 Bft) NW 315 0 min 0 lux -6,2 C -4,4 C
03.02.2008 01:27 -4,4 C -5,5 C -5,7 C 87 % 1020 hPa 0,0 l/m 0,0 m/s (0 Bft) NW 315 0 min 0 lux -6,2 C -4,4 C
03.02.2008 01:32 -4,2 C -5,5 C -5,6 C 87 % 1020 hPa 0,0 l/m 0,0 m/s (0 Bft) NW 315 0 min 0 lux -6,0 C -4,2 C
03.02.2008 01:37 -4,5 C -5,6 C -5,7 C 87 % 1020 hPa 0,0 l/m 0,0 m/s (0 Bft) NW 315 0 min 0 lux -6,3 C -4,5 C
03.02.2008 01:42 -4,4 C -5,6 C -5,8 C 87 % 1020 hPa 0,0 l/m 0,0 m/s (0 Bft) NW 315 0 min 0 lux -6,2 C -4,4 C
03.02.2008 01:47 -4,6 C -5,6 C -5,8 C 87 % 1020 hPa 0,0 l/m 0,0 m/s (0 Bft) NW 315 0 min 0 lux -6,4 C -4,6 C
03.02.2008 01:52 -4,5 C -5,7 C -6,0 C 86 % 1020 hPa 0,0 l/m 0,0 m/s (0 Bft) NW 315 0 min 0 lux -6,5 C -4,5 C
03.02.2008 01:57 -4,5 C -5,7 C -6,0 C 86 % 1020 hPa 0,0 l/m 0,0 m/s (0 Bft) NW 315 0 min 0 lux -6,5 C -4,5 C
03.02.2008 02:02 -5,0 C -5,7 C -6,1 C 86 % 1020 hPa 0,0 l/m 0,0 m/s (0 Bft) NW 315 0 min 0 lux -7,0 C -5,0 C
03.02.2008 02:07 -4,8 C -5,8 C -6,0 C 86 % 1020 hPa 0,0 l/m 0,0 m/s (0 Bft) NW 315 0 min 0 lux -6,8 C -4,8 C
03.02.2008 02:12 -5,2 C -5,9 C -6,0 C 86 % 1020 hPa 0,0 l/m 0,0 m/s (0 Bft) NW 315 0 min 0 lux -7,2 C -5,2 C
03.02.2008 02:17 -5,1 C -5,9 C -6,1 C 85 % 1020 hPa 0,0 l/m 0,0 m/s (0 Bft) NW 315 0 min 0 lux -7,2 C -5,1 C
03.02.2008 02:22 -4,7 C -5,9 C -5,9 C 86 % 1020 hPa 0,0 l/m 0,0 m/s (0 Bft) NW 315 0 min 0 lux -6,7 C -4,7 C
03.02.2008 02:27 -4,8 C -6,0 C -6,2 C 86 % 1020 hPa 0,0 l/m 0,0 m/s (0 Bft) NW 315 0 min 0 lux -6,8 C -4,8 C
03.02.2008 02:32 -5,1 C -6,0 C -6,1 C 85 % 1020 hPa 0,0 l/m 0,0 m/s (0 Bft) NW 315 0 min 0 lux -7,2 C -5,1 C
03.02.2008 02:37 -5,1 C -6,0 C -6,3 C 85 % 1020 hPa 0,0 l/m 0,0 m/s (0 Bft) NW 315 0 min 0 lux -7,2 C -5,1 C
03.02.2008 02:42 -4,8 C -6,0 C -6,2 C 85 % 1020 hPa 0,0 l/m 0,0 m/s (0 Bft) NW 315 0 min 0 lux -6,9 C -4,8 C
03.02.2008 02:47 -4,9 C -6,1 C -6,2 C 85 % 1020 hPa 0,0 l/m 0,0 m/s (0 Bft) NW 315 0 min 0 lux -7,0 C -4,9 C
03.02.2008 02:52 -4,9 C -6,2 C -6,7 C 85 % 1020 hPa 0,0 l/m 0,0 m/s (0 Bft) NW 315 0 min 0 lux -7,0 C -4,9 C
03.02.2008 02:57 -5,1 C -6,2 C -6,7 C 85 % 1020 hPa 0,0 l/m 0,0 m/s (0 Bft) NW 315 0 min 0 lux -7,2 C -5,1 C
03.02.2008 03:02 -5,3 C -6,2 C -6,4 C 85 % 1020 hPa 0,0 l/m 0,0 m/s (0 Bft) NW 315 0 min 0 lux -7,4 C -5,3 C
03.02.2008 03:07 -5,2 C -6,3 C -6,3 C 85 % 1020 hPa 0,0 l/m 0,0 m/s (0 Bft) NW 315 0 min 0 lux -7,3 C -5,2 C
03.02.2008 03:12 -5,1 C -6,3 C -6,6 C 85 % 1020 hPa 0,0 l/m 0,0 m/s (0 Bft) NW 315 0 min 0 lux -7,2 C -5,1 C
03.02.2008 03:17 -5,1 C -6,3 C -6,4 C 85 % 1020 hPa 0,0 l/m 0,0 m/s (0 Bft) NW 315 0 min 0 lux -7,2 C -5,1 C
03.02.2008 03:22 -5,3 C -6,3 C -6,6 C 84 % 1020 hPa 0,0 l/m 0,0 m/s (0 Bft) NW 315 0 min 0 lux -7,6 C -5,3 C
03.02.2008 03:27 -5,2 C -6,4 C -6,5 C 85 % 1019 hPa 0,0 l/m 0,0 m/s (0 Bft) NW 315 0 min 0 lux -7,3 C -5,2 C
03.02.2008 03:32 -5,5 C -6,4 C -6,5 C 84 % 1019 hPa 0,0 l/m 0,0 m/s (0 Bft) NW 315 0 min 0 lux -7,8 C -5,5 C
03.02.2008 03:37 -5,3 C -6,4 C -6,5 C 84 % 1020 hPa 0,0 l/m 0,0 m/s (0 Bft) NW 315 0 min 0 lux -7,6 C -5,3 C
03.02.2008 03:42 -5,3 C -6,5 C -6,8 C 84 % 1020 hPa 0,0 l/m 0,0 m/s (0 Bft) NW 315 0 min 0 lux -7,6 C -5,3 C
03.02.2008 03:47 -5,3 C -6,5 C -6,6 C 84 % 1019 hPa 0,0 l/m 0,0 m/s (0 Bft) NW 315 0 min 0 lux -7,6 C -5,3 C
03.02.2008 03:52 -5,6 C -6,5 C -6,5 C 84 % 1019 hPa 0,0 l/m 0,0 m/s (0 Bft) NW 315 0 min 0 lux -7,9 C -5,6 C
03.02.2008 03:57 -5,4 C -6,6 C -6,6 C 84 % 1019 hPa 0,0 l/m 0,0 m/s (0 Bft) NW 315 0 min 0 lux -7,7 C -5,4 C
03.02.2008 04:02 -5,4 C -6,6 C -6,9 C 84 % 1019 hPa 0,0 l/m 0,0 m/s (0 Bft) NW 315 0 min 0 lux -7,7 C -5,4 C
03.02.2008 04:06 -5,3 C -6,6 C -6,7 C 84 % 1019 hPa 0,0 l/m 0,0 m/s (0 Bft) NW 315 0 min 0 lux -7,6 C -5,3 C
03.02.2008 04:12 -5,6 C -6,7 C -6,7 C 84 % 1019 hPa 0,0 l/m 0,0 m/s (0 Bft) NW 315 0 min 0 lux -7,9 C -5,6 C
03.02.2008 04:17 -5,2 C -6,7 C -6,6 C 84 % 1019 hPa 0,0 l/m 0,0 m/s (0 Bft) NW 315 0 min 0 lux -7,5 C -5,2 C
03.02.2008 04:22 -5,5 C -6,7 C -6,9 C 84 % 1019 hPa 0,0 l/m 0,0 m/s (0 Bft) NW 315 0 min 0 lux -7,8 C -5,5 C
03.02.2008 04:27 -5,4 C -6,8 C -6,7 C 84 % 1019 hPa 0,0 l/m 0,0 m/s (0 Bft) NW 315 0 min 0 lux -7,7 C -5,4 C
03.02.2008 04:32 -5,5 C -6,8 C -6,8 C 84 % 1019 hPa 0,0 l/m 0,0 m/s (0 Bft) NW 315 0 min 0 lux -7,8 C -5,5 C
03.02.2008 04:37 -5,6 C -6,8 C -6,7 C 84 % 1019 hPa 0,0 l/m 0,0 m/s (0 Bft) NW 315 0 min 0 lux -7,9 C -5,6 C
03.02.2008 04:42 -5,6 C -6,8 C -6,8 C 84 % 1019 hPa 0,0 l/m 0,0 m/s (0 Bft) NW 315 0 min 0 lux -7,9 C -5,6 C
03.02.2008 04:47 -5,6 C -6,8 C -6,9 C 84 % 1019 hPa 0,0 l/m 0,0 m/s (0 Bft) NW 315 0 min 0 lux -7,9 C -5,6 C
03.02.2008 04:52 -5,4 C -6,8 C -6,9 C 84 % 1019 hPa 0,0 l/m 0,0 m/s (0 Bft) NW 315 0 min 0 lux -7,7 C -5,4 C
03.02.2008 04:57 -5,9 C -6,9 C -6,9 C 84 % 1019 hPa 0,0 l/m 0,0 m/s (0 Bft) NW 315 0 min 0 lux -8,2 C -5,9 C
03.02.2008 05:02 -5,7 C -6,9 C -6,9 C 84 % 1019 hPa 0,0 l/m 0,0 m/s (0 Bft) NW 315 0 min 0 lux -8,0 C -5,7 C
03.02.2008 05:07 -5,6 C -6,9 C -7,1 C 84 % 1019 hPa 0,0 l/m 0,0 m/s (0 Bft) NW 315 0 min 0 lux -7,9 C -5,6 C
03.02.2008 05:12 -5,8 C -6,9 C -7,1 C 84 % 1019 hPa 0,0 l/m 0,0 m/s (0 Bft) NW 315 0 min 0 lux -8,1 C -5,8 C
03.02.2008 05:17 -5,6 C -6,9 C -6,7 C 84 % 1019 hPa 0,0 l/m 0,0 m/s (0 Bft) NW 315 0 min 0 lux -7,9 C -5,6 C
03.02.2008 05:22 -5,5 C -6,9 C -6,4 C 84 % 1019 hPa 0,0 l/m 0,0 m/s (0 Bft) NW 315 0 min 0 lux -7,8 C -5,5 C
03.02.2008 05:27 -5,4 C -6,8 C -6,8 C 84 % 1019 hPa 0,0 l/m 0,0 m/s (0 Bft) NW 315 0 min 0 lux -7,7 C -5,4 C
03.02.2008 05:32 -5,8 C -6,9 C -6,8 C 84 % 1019 hPa 0,0 l/m 0,0 m/s (0 Bft) NW 315 0 min 0 lux -8,1 C -5,8 C
03.02.2008 05:37 -5,7 C -6,9 C -6,9 C 84 % 1019 hPa 0,0 l/m 0,0 m/s (0 Bft) NW 315 0 min 0 lux -8,0 C -5,7 C
03.02.2008 05:42 -5,6 C -6,9 C -6,9 C 84 % 1019 hPa 0,0 l/m 0,0 m/s (0 Bft) NW 315 0 min 0 lux -7,9 C -5,6 C
03.02.2008 05:47 -5,6 C -6,8 C -6,9 C 84 % 1019 hPa 0,0 l/m 0,0 m/s (0 Bft) NW 315 0 min 0 lux -7,9 C -5,6 C
03.02.2008 05:52 -5,8 C -6,9 C -6,9 C 83 % 1019 hPa 0,0 l/m 0,0 m/s (0 Bft) NW 315 0 min 0 lux -8,2 C -5,8 C
03.02.2008 05:57 -5,7 C -6,9 C -7,2 C 83 % 1019 hPa 0,0 l/m 0,0 m/s (0 Bft) NW 315 0 min 0 lux -8,1 C -5,7 C
03.02.2008 06:02 -5,7 C -6,9 C -7,0 C 83 % 1019 hPa 0,0 l/m 0,0 m/s (0 Bft) NW 315 0 min 0 lux -8,1 C -5,7 C
03.02.2008 06:07 -6,0 C -6,9 C -7,0 C 83 % 1019 hPa 0,0 l/m 0,0 m/s (0 Bft) NW 315 0 min 0 lux -8,4 C -6,0 C
03.02.2008 06:12 -6,0 C -6,9 C -7,2 C 83 % 1019 hPa 0,0 l/m 0,0 m/s (0 Bft) NW 315 0 min 0 lux -8,4 C -6,0 C
03.02.2008 06:17 -6,0 C -6,9 C -7,0 C 83 % 1019 hPa 0,0 l/m 0,0 m/s (0 Bft) NW 315 0 min 0 lux -8,4 C -6,0 C
03.02.2008 06:22 -5,9 C -7,0 C -7,0 C 83 % 1019 hPa 0,0 l/m 0,0 m/s (0 Bft) NW 315 0 min 0 lux -8,3 C -5,9 C
03.02.2008 06:27 -5,8 C -7,0 C -7,2 C 83 % 1019 hPa 0,0 l/m 0,0 m/s (0 Bft) NW 315 0 min 0 lux -8,2 C -5,8 C
03.02.2008 06:32 -6,0 C -7,0 C -7,4 C 83 % 1019 hPa 0,0 l/m 0,0 m/s (0 Bft) NW 315 0 min 0 lux -8,4 C -6,0 C
03.02.2008 06:37 -6,2 C -7,0 C -7,3 C 83 % 1019 hPa 0,0 l/m 0,0 m/s (0 Bft) NW 315 0 min 0 lux -8,6 C -6,2 C
03.02.2008 06:42 -6,2 C -7,1 C -7,2 C 83 % 1019 hPa 0,0 l/m 0,0 m/s (0 Bft) NW 315 0 min 0 lux -8,6 C -6,2 C
03.02.2008 06:47 -5,9 C -7,1 C -6,9 C 83 % 1018 hPa 0,0 l/m 0,0 m/s (0 Bft) O 95 0 min 0 lux -8,3 C -5,9 C
03.02.2008 06:52 -6,1 C -7,1 C -7,1 C 83 % 1018 hPa 0,0 l/m 0,0 m/s (0 Bft) O 95 0 min 0 lux -8,5 C -6,1 C
03.02.2008 06:57 -5,6 C -7,1 C -6,9 C 83 % 1018 hPa 0,0 l/m 0,0 m/s (0 Bft) O 95 0 min 0 lux -8,0 C -5,6 C
03.02.2008 07:02 -5,8 C -7,1 C -7,0 C 83 % 1018 hPa 0,0 l/m 0,0 m/s (0 Bft) O 95 0 min 0 lux -8,2 C -5,8 C
03.02.2008 07:07 -5,9 C -7,1 C -7,2 C 83 % 1018 hPa 0,0 l/m 0,0 m/s (0 Bft) O 95 0 min 0 lux -8,3 C -5,9 C
03.02.2008 07:12 -6,1 C -7,1 C -7,0 C 83 % 1019 hPa 0,0 l/m 0,0 m/s (0 Bft) O 95 0 min 0 lux -8,5 C -6,1 C
03.02.2008 07:17 -6,0 C -7,1 C -7,1 C 83 % 1019 hPa 0,0 l/m 0,0 m/s (0 Bft) O 95 0 min 0 lux -8,4 C -6,0 C
03.02.2008 07:22 -6,1 C -7,1 C -6,9 C 83 % 1018 hPa 0,0 l/m 0,0 m/s (0 Bft) O 95 0 min 0 lux -8,5 C -6,1 C
03.02.2008 07:27 -5,6 C -7,1 C -7,3 C 83 % 1018 hPa 0,0 l/m 0,0 m/s (0 Bft) O 95 0 min 0 lux -8,0 C -5,6 C
03.02.2008 07:32 -5,7 C -7,1 C -7,1 C 83 % 1018 hPa 0,0 l/m 0,0 m/s (0 Bft) O 95 0 min 0 lux -8,1 C -5,7 C
03.02.2008 07:37 -5,8 C -7,1 C -7,2 C 83 % 1018 hPa 0,0 l/m 0,0 m/s (0 Bft) O 95 0 min 0 lux -8,2 C -5,8 C
03.02.2008 07:42 -6,1 C -7,1 C -7,2 C 83 % 1018 hPa 0,0 l/m 0,0 m/s (0 Bft) O 95 0 min 0 lux -8,5 C -6,1 C
03.02.2008 07:47 -6,2 C -7,1 C -7,0 C 83 % 1018 hPa 0,0 l/m 0,0 m/s (0 Bft) O 95 0 min 74 lux -8,6 C -6,2 C
03.02.2008 07:52 -6,0 C -7,1 C -7,2 C 83 % 1018 hPa 0,0 l/m 0,0 m/s (0 Bft) O 95 0 min 123 lux -8,4 C -6,0 C
03.02.2008 07:57 -5,7 C -7,1 C -7,3 C 83 % 1018 hPa 0,0 l/m 0,0 m/s (0 Bft) O 95 0 min 195 lux -8,1 C -5,7 C
03.02.2008 08:02 -5,8 C -7,1 C -7,1 C 83 % 1018 hPa 0,0 l/m 0,0 m/s (0 Bft) O 95 0 min 309 lux -8,2 C -5,8 C
03.02.2008 08:07 -5,9 C -7,2 C -7,4 C 83 % 1018 hPa 0,0 l/m 0,0 m/s (0 Bft) O 95 0 min 493 lux -8,3 C -5,9 C
03.02.2008 08:12 -5,9 C -7,2 C -7,1 C 83 % 1018 hPa 0,0 l/m 0,0 m/s (0 Bft) O 95 0 min 738 lux -8,3 C -5,9 C
03.02.2008 08:17 -6,1 C -7,2 C -7,2 C 83 % 1018 hPa 0,0 l/m 0,0 m/s (0 Bft) O 95 0 min 874 lux -8,5 C -6,1 C
03.02.2008 08:22 -5,9 C -7,2 C -6,9 C 83 % 1018 hPa 0,0 l/m 0,0 m/s (0 Bft) O 95 0 min 1,41 klux -8,3 C -5,9 C
03.02.2008 08:27 -5,7 C -7,1 C -7,0 C 83 % 1018 hPa 0,0 l/m 0,0 m/s (0 Bft) O 95 0 min 1,81 klux -8,1 C -5,7 C
03.02.2008 08:32 -5,0 C -7,1 C -7,0 C 83 % 1018 hPa 0,0 l/m 0,0 m/s (0 Bft) O 95 0 min 3,27 klux -7,4 C -5,0 C
03.02.2008 08:37 -4,7 C -7,0 C -6,3 C 84 % 1018 hPa 0,0 l/m 0,0 m/s (0 Bft) O 80 0 min 5,42 klux -7,0 C -4,7 C
03.02.2008 08:42 -3,8 C -6,9 C -6,1 C 85 % 1018 hPa 0,0 l/m 0,0 m/s (0 Bft) O-NO 75 5 min 8,28 klux -5,9 C -3,8 C
03.02.2008 08:47 -3,9 C -6,8 C -6,1 C 86 % 1018 hPa 0,0 l/m 0,0 m/s (0 Bft) O-NO 75 5 min 9,6 klux -5,9 C -3,9 C
03.02.2008 08:52 -3,5 C -6,7 C -5,8 C 86 % 1018 hPa 0,0 l/m 0,0 m/s (0 Bft) O-NO 75 5 min 10,2 klux -5,5 C -3,5 C
03.02.2008 08:57 -3,2 C -6,5 C -5,5 C 86 % 1019 hPa 0,0 l/m 0,0 m/s (0 Bft) O 80 5 min 11,2 klux -5,2 C -3,2 C
03.02.2008 09:02 -2,6 C -6,2 C -5,2 C 87 % 1018 hPa 0,0 l/m 0,0 m/s (0 Bft) O 85 5 min 12,3 klux -4,5 C -2,6 C
03.02.2008 09:07 -3,3 C -6,2 C -5,6 C 87 % 1018 hPa 0,0 l/m 0,0 m/s (0 Bft) O 95 5 min 11,9 klux -5,1 C -3,3 C
03.02.2008 09:12 -3,3 C -6,0 C -5,5 C 87 % 1018 hPa 0,0 l/m 0,0 m/s (0 Bft) O 95 5 min 14,6 klux -5,1 C -3,3 C
03.02.2008 09:17 -3,7 C -5,8 C -5,4 C 85 % 1019 hPa 0,0 l/m 0,0 m/s (0 Bft) O 95 5 min 15,1 klux -5,8 C -3,7 C
03.02.2008 09:22 -3,9 C -5,8 C -5,4 C 85 % 1019 hPa 0,0 l/m 0,0 m/s (0 Bft) O 95 5 min 14,5 klux -6,0 C -3,9 C
03.02.2008 09:27 -3,8 C -5,6 C -5,2 C 85 % 1018 hPa 0,0 l/m 0,0 m/s (0 Bft) O 95 5 min 16,8 klux -5,9 C -3,8 C
03.02.2008 09:32 -3,6 C -5,4 C -5,1 C 84 % 1018 hPa 0,0 l/m 0,0 m/s (0 Bft) O 95 5 min 17,6 klux -5,9 C -3,6 C
03.02.2008 09:37 -2,9 C -5,2 C -4,8 C 85 % 1018 hPa 0,0 l/m 0,0 m/s (0 Bft) O 95 5 min 18,5 klux -5,1 C -2,9 C
03.02.2008 09:42 -2,4 C -5,1 C -4,5 C 85 % 1018 hPa 0,0 l/m 0,0 m/s (0 Bft) O 95 5 min 20,0 klux -4,6 C -2,4 C
03.02.2008 09:46 -1,3 C -4,8 C -3,8 C 87 % 1018 hPa 0,0 l/m 0,0 m/s (0 Bft) O22.5 100 4 min 21,7 klux -3,2 C -1,3 C
03.02.2008 09:52 -1,0 C -4,3 C -3,6 C 87 % 1018 hPa 0,0 l/m 0,0 m/s (0 Bft) O45 85 6 min 22,7 klux -2,9 C -1,0 C
03.02.2008 09:57 -0,9 C -4,1 C -3,4 C 87 % 1018 hPa 0,0 l/m 0,0 m/s (0 Bft) O22.5 90 5 min 26,0 klux -2,8 C -0,9 C
03.02.2008 10:02 -0,8 C -3,8 C -3,2 C 86 % 1018 hPa 0,0 l/m 0,0 m/s (0 Bft) O22.5 100 5 min 24,5 klux -2,8 C -0,8 C
03.02.2008 10:07 -0,9 C -3,5 C -3,2 C 85 % 1018 hPa 0,0 l/m 0,0 m/s (0 Bft) O22.5 95 5 min 28,8 klux -3,1 C -0,9 C
03.02.2008 10:12 -0,8 C -3,1 C -2,9 C 84 % 1018 hPa 0,0 l/m 0,0 m/s (0 Bft) O22.5 95 5 min 29,7 klux -3,2 C -0,8 C
03.02.2008 10:17 -0,8 C -3,0 C -2,9 C 83 % 1018 hPa 0,0 l/m 0,0 m/s (0 Bft) O-SO22.5 105 5 min 29,2 klux -3,3 C -0,8 C
03.02.2008 10:22 -0,6 C -2,7 C -2,8 C 82 % 1018 hPa 0,0 l/m 0,0 m/s (0 Bft) O22.5 100 5 min 27,8 klux -3,3 C -0,6 C
03.02.2008 10:27 -0,5 C -2,4 C -2,5 C 81 % 1018 hPa 0,0 l/m 0,0 m/s (0 Bft) O22.5 100 5 min 27,2 klux -3,3 C -0,5 C
03.02.2008 10:32 -0,4 C -2,4 C -2,5 C 80 % 1018 hPa 0,0 l/m 0,0 m/s (0 Bft) O-SO45 110 5 min 29,2 klux -3,4 C -0,4 C
03.02.2008 10:37 -0,4 C -2,1 C -2,4 C 79 % 1018 hPa 0,0 l/m 0,0 m/s (0 Bft) O22.5 100 5 min 27,4 klux -3,6 C -0,4 C
03.02.2008 10:42 -0,5 C -1,6 C -2,3 C 77 % 1018 hPa 0,0 l/m 0,0 m/s (0 Bft) O22.5 95 5 min 27,6 klux -4,0 C -0,5 C
03.02.2008 10:47 -0,3 C -1,5 C -2,2 C 76 % 1018 hPa 0,0 l/m 0,0 m/s (0 Bft) O-SO22.5 105 5 min 30,4 klux -4,0 C -0,3 C
03.02.2008 10:52 -0,3 C -1,0 C -2,1 C 75 % 1018 hPa 0,0 l/m 0,0 m/s (0 Bft) O22.5 95 5 min 30,9 klux -4,2 C -0,3 C
03.02.2008 10:57 -0,2 C -0,2 C -2,0 C 74 % 1018 hPa 0,0 l/m 0,0 m/s (0 Bft) O-SO22.5 105 5 min 33,7 klux -4,3 C -0,2 C
03.02.2008 11:02 0,0 C 0,3 C -1,7 C 73 % 1018 hPa 0,0 l/m 0,0 m/s (0 Bft) O-SO22.5 115 5 min 37,6 klux -4,2 C 0,0 C
03.02.2008 11:07 -0,2 C 1,5 C -1,7 C 71 % 1018 hPa 0,0 l/m 0,0 m/s (0 Bft) O-SO22.5 110 5 min 37,8 klux -4,8 C -0,2 C
03.02.2008 11:12 0,1 C 2,8 C -1,4 C 70 % 1018 hPa 0,0 l/m 0,0 m/s (0 Bft) O-SO22.5 115 5 min 38,6 klux -4,7 C 0,1 C
03.02.2008 11:17 0,4 C 4,1 C -1,1 C 69 % 1018 hPa 0,0 l/m 0,0 m/s (0 Bft) O-SO45 115 5 min 38,3 klux -4,6 C 0,4 C
03.02.2008 11:22 0,4 C 4,8 C -1,0 C 69 % 1017 hPa 0,0 l/m 0,0 m/s (0 Bft) O-SO22.5 120 5 min 37,4 klux -4,6 C 0,4 C
03.02.2008 11:27 0,2 C 5,4 C -1,0 C 66 % 1017 hPa 0,0 l/m 0,0 m/s (0 Bft) O-SO22.5 115 5 min 37,0 klux -5,4 C 0,2 C
03.02.2008 11:32 0,3 C 5,9 C -0,9 C 64 % 1017 hPa 0,0 l/m 0,0 m/s (0 Bft) O-SO22.5 115 5 min 38,1 klux -5,7 C 0,3 C
03.02.2008 11:37 0,3 C 6,5 C -0,6 C 62 % 1017 hPa 0,0 l/m 0,0 m/s (0 Bft) O-SO22.5 110 5 min 39,2 klux -6,1 C 0,3 C
03.02.2008 11:42 0,5 C 6,7 C -0,6 C 62 % 1017 hPa 0,0 l/m 0,0 m/s (0 Bft) O-SO22.5 120 5 min 39,1 klux -5,9 C 0,5 C
03.02.2008 11:47 0,6 C 7,2 C -0,5 C 60 % 1017 hPa 0,0 l/m 0,0 m/s (0 Bft) O-SO22.5 120 5 min 38,8 klux -6,3 C 0,6 C
03.02.2008 11:52 0,8 C 8,0 C -0,3 C 60 % 1017 hPa 0,0 l/m 0,4 m/s (1 Bft) SO22.5 135 5 min 38,4 klux -6,1 C 0,8 C
03.02.2008 11:57 0,7 C 8,2 C -0,3 C 58 % 1017 hPa 0,0 l/m 5,2 m/s (3 Bft) O-SO45 120 5 min 37,4 klux -6,6 C -8,1 C
03.02.2008 12:02 0,8 C 8,4 C -0,1 C 58 % 1017 hPa 0,0 l/m 5,6 m/s (4 Bft) O-SO22.5 120 5 min 36,5 klux -6,5 C -8,6 C
03.02.2008 12:07 1,0 C 8,7 C 0,0 C 56 % 1017 hPa 0,0 l/m 5,0 m/s (3 Bft) O-SO45 115 5 min 35,9 klux -6,8 C -7,4 C
03.02.2008 12:12 1,0 C 8,8 C 0,0 C 56 % 1017 hPa 0,0 l/m 4,4 m/s (3 Bft) O-SO22.5 115 5 min 37,5 klux -6,8 C -6,2 C
03.02.2008 12:17 1,0 C 9,1 C 0,1 C 55 % 1017 hPa 0,0 l/m 6,0 m/s (4 Bft) O-SO45 115 5 min 37,9 klux -7,0 C -9,1 C
03.02.2008 12:22 1,0 C 9,3 C 0,2 C 56 % 1016 hPa 0,0 l/m 4,2 m/s (3 Bft) SO45 125 5 min 38,5 klux -6,8 C -5,8 C
03.02.2008 12:27 1,1 C 9,1 C 0,1 C 55 % 1016 hPa 0,0 l/m 5,6 m/s (4 Bft) O-SO45 115 5 min 36,1 klux -6,9 C -8,3 C
03.02.2008 12:32 1,1 C 9,0 C 0,1 C 54 % 1016 hPa 0,0 l/m 5,3 m/s (3 Bft) O-SO22.5 120 5 min 33,5 klux -7,1 C -7,7 C
03.02.2008 12:37 1,1 C 8,5 C 0,1 C 53 % 1016 hPa 0,0 l/m 6,4 m/s (4 Bft) O-SO22.5 115 5 min 36,3 klux -7,4 C -9,6 C
03.02.2008 12:42 1,3 C 8,3 C 0,0 C 52 % 1016 hPa 0,0 l/m 6,9 m/s (4 Bft) O-SO22.5 115 5 min 34,3 klux -7,4 C -9,9 C
03.02.2008 12:47 1,4 C 8,2 C 0,0 C 52 % 1016 hPa 0,0 l/m 6,3 m/s (4 Bft) O-SO22.5 120 5 min 31,1 klux -7,4 C -8,9 C
03.02.2008 12:52 1,3 C 8,2 C 0,1 C 53 % 1016 hPa 0,0 l/m 5,6 m/s (4 Bft) O-SO45 115 5 min 34,1 klux -7,2 C -8,1 C
03.02.2008 12:57 1,2 C 8,2 C 0,1 C 51 % 1015 hPa 0,0 l/m 5,3 m/s (3 Bft) O-SO22.5 120 5 min 34,0 klux -7,8 C -7,7 C
03.02.2008 13:02 1,4 C 8,1 C 0,0 C 51 % 1015 hPa 0,0 l/m 6,6 m/s (4 Bft) O-SO45 115 5 min 34,3 klux -7,6 C -9,4 C
03.02.2008 13:07 1,5 C 8,2 C 0,1 C 51 % 1015 hPa 0,0 l/m 5,3 m/s (3 Bft) O-SO22.5 110 5 min 33,7 klux -7,5 C -7,3 C
03.02.2008 13:12 1,5 C 7,5 C 0,1 C 51 % 1015 hPa 0,0 l/m 5,2 m/s (3 Bft) SO22.5 125 5 min 31,6 klux -7,5 C -7,1 C
03.02.2008 13:17 1,6 C 6,7 C 0,2 C 51 % 1015 hPa 0,0 l/m 5,7 m/s (4 Bft) O-SO22.5 115 5 min 30,7 klux -7,4 C -7,8 C
03.02.2008 13:22 1,7 C 6,3 C 0,2 C 50 % 1015 hPa 0,0 l/m 4,5 m/s (3 Bft) SO22.5 125 0 min 26,4 klux -7,6 C -5,5 C
03.02.2008 13:27 1,7 C 5,7 C 0,2 C 50 % 1015 hPa 0,0 l/m 3,9 m/s (3 Bft) O-SO22.5 110 0 min 28,7 klux -7,6 C -4,5 C
03.02.2008 13:32 1,6 C 5,3 C 0,1 C 50 % 1015 hPa 0,0 l/m 5,8 m/s (4 Bft) O-SO22.5 115 0 min 27,1 klux -7,7 C -7,9 C
03.02.2008 13:37 1,6 C 5,1 C 0,2 C 49 % 1014 hPa 0,0 l/m 5,2 m/s (3 Bft) O-SO45 115 0 min 26,2 klux -7,9 C -7,0 C
03.02.2008 13:42 1,8 C 4,9 C 0,2 C 50 % 1014 hPa 0,0 l/m 3,2 m/s (2 Bft) SO45 135 0 min 24,2 klux -7,5 C -2,6 C
03.02.2008 13:47 1,8 C 4,8 C 0,3 C 49 % 1014 hPa 0,0 l/m 4,7 m/s (3 Bft) SO22.5 135 0 min 24,4 klux -7,8 C -5,8 C
03.02.2008 13:52 1,8 C 4,8 C 0,3 C 49 % 1014 hPa 0,0 l/m 5,2 m/s (3 Bft) SO45 135 0 min 26,7 klux -7,8 C -6,8 C
03.02.2008 13:57 1,9 C 4,8 C 0,2 C 49 % 1014 hPa 0,0 l/m 4,1 m/s (3 Bft) O-SO22.5 120 0 min 27,0 klux -7,7 C -4,4 C
03.02.2008 14:02 2,0 C 4,8 C 0,3 C 47 % 1014 hPa 0,0 l/m 3,8 m/s (3 Bft) SO22.5 125 5 min 28,8 klux -8,1 C -3,8 C
03.02.2008 14:07 2,1 C 4,6 C 0,3 C 46 % 1014 hPa 0,0 l/m 5,1 m/s (3 Bft) O-SO45 120 5 min 27,7 klux -8,3 C -6,1 C
03.02.2008 14:12 2,0 C 4,6 C 0,2 C 46 % 1014 hPa 0,0 l/m 6,0 m/s (4 Bft) O-SO45 120 5 min 26,9 klux -8,4 C -7,7 C
03.02.2008 14:17 2,1 C 4,5 C 0,3 C 47 % 1014 hPa 0,0 l/m 5,4 m/s (3 Bft) SO22.5 135 5 min 26,2 klux -8,0 C -6,7 C
03.02.2008 14:22 2,1 C 4,3 C 0,3 C 47 % 1014 hPa 0,0 l/m 5,4 m/s (3 Bft) SO22.5 140 0 min 23,6 klux -8,0 C -6,7 C
03.02.2008 14:27 2,1 C 4,3 C 0,3 C 45 % 1014 hPa 0,0 l/m 5,9 m/s (4 Bft) SO45 135 5 min 25,6 klux -8,6 C -7,4 C
03.02.2008 14:32 2,2 C 4,1 C 0,3 C 46 % 1014 hPa 0,0 l/m 2,9 m/s (2 Bft) SO22.5 130 5 min 26,3 klux -8,2 C -1,3 C
03.02.2008 14:37 2,3 C 4,0 C 0,2 C 45 % 1014 hPa 0,0 l/m 4,1 m/s (3 Bft) O-SO22.5 120 5 min 30,0 klux -8,4 C -4,1 C
03.02.2008 14:42 2,3 C 3,9 C 0,3 C 45 % 1014 hPa 0,0 l/m 4,1 m/s (3 Bft) O-SO45 115 5 min 26,2 klux -8,4 C -4,0 C
03.02.2008 14:47 2,4 C 3,8 C 0,3 C 45 % 1014 hPa 0,0 l/m 3,8 m/s (3 Bft) O-SO22.5 120 5 min 23,4 klux -8,3 C -3,2 C
03.02.2008 14:52 2,4 C 3,7 C 0,3 C 44 % 1013 hPa 0,0 l/m 4,6 m/s (3 Bft) SO67.5 140 5 min 27,7 klux -8,6 C -4,9 C
03.02.2008 14:57 2,5 C 3,6 C 0,3 C 44 % 1013 hPa 0,0 l/m 4,6 m/s (3 Bft) SO22.5 130 5 min 24,8 klux -8,5 C -4,8 C
03.02.2008 15:02 2,5 C 3,5 C 0,4 C 45 % 1013 hPa 0,0 l/m 4,4 m/s (3 Bft) SO45 125 5 min 25,3 klux -8,2 C -4,5 C
03.02.2008 15:07 2,4 C 3,5 C 0,4 C 44 % 1013 hPa 0,0 l/m 5,2 m/s (3 Bft) SO22.5 125 5 min 25,0 klux -8,6 C -6,0 C
03.02.2008 15:12 2,5 C 3,4 C 0,5 C 44 % 1013 hPa 0,0 l/m 5,3 m/s (3 Bft) SO45 125 5 min 21,1 klux -8,5 C -6,0 C
03.02.2008 15:17 2,4 C 3,3 C 0,3 C 43 % 1013 hPa 0,0 l/m 5,0 m/s (3 Bft) SO45 125 5 min 20,0 klux -8,9 C -5,6 C
03.02.2008 15:22 2,4 C 3,2 C 0,3 C 45 % 1013 hPa 0,0 l/m 4,7 m/s (3 Bft) SO45 135 5 min 19,4 klux -8,3 C -5,1 C
03.02.2008 15:27 2,4 C 3,2 C 0,3 C 44 % 1013 hPa 0,0 l/m 6,6 m/s (4 Bft) O-SO45 115 5 min 19,4 klux -8,6 C -8,0 C
03.02.2008 15:32 2,4 C 3,1 C 0,3 C 44 % 1013 hPa 0,0 l/m 5,4 m/s (3 Bft) O-SO22.5 120 5 min 19,6 klux -8,6 C -6,3 C
03.02.2008 15:37 2,4 C 3,0 C 0,3 C 44 % 1013 hPa 0,0 l/m 4,3 m/s (3 Bft) O-SO45 110 5 min 20,2 klux -8,6 C -4,3 C
03.02.2008 15:42 2,5 C 3,0 C 0,3 C 45 % 1013 hPa 0,0 l/m 3,5 m/s (3 Bft) SO22.5 145 5 min 20,0 klux -8,2 C -2,5 C
03.02.2008 15:47 2,4 C 3,0 C 0,2 C 45 % 1013 hPa 0,0 l/m 6,3 m/s (4 Bft) O-SO22.5 105 5 min 19,9 klux -8,3 C -7,7 C
03.02.2008 15:52 2,4 C 2,9 C 0,3 C 45 % 1013 hPa 0,0 l/m 4,1 m/s (3 Bft) O-SO22.5 120 5 min 20,8 klux -8,3 C -4,0 C
03.02.2008 15:57 2,4 C 2,9 C 0,2 C 45 % 1013 hPa 0,0 l/m 3,8 m/s (3 Bft) O-SO22.5 115 5 min 16,2 klux -8,3 C -3,4 C
03.02.2008 16:02 2,4 C 2,8 C 0,3 C 46 % 1013 hPa 0,0 l/m 4,5 m/s (3 Bft) O-SO22.5 120 5 min 16,4 klux -8,0 C -4,7 C
03.02.2008 16:07 2,4 C 2,7 C 0,2 C 45 % 1013 hPa 0,0 l/m 4,5 m/s (3 Bft) SO22.5 125 0 min 11,1 klux -8,3 C -4,8 C
03.02.2008 16:12 2,2 C 2,6 C 0,2 C 46 % 1013 hPa 0,0 l/m 5,6 m/s (4 Bft) SO22.5 125 0 min 10,3 klux -8,2 C -6,8 C
03.02.2008 16:17 2,2 C 2,5 C 0,1 C 47 % 1013 hPa 0,0 l/m 3,5 m/s (3 Bft) SO22.5 125 0 min 8,89 klux -7,9 C -2,8 C
03.02.2008 16:22 2,0 C 2,3 C 0,0 C 47 % 1013 hPa 0,0 l/m 2,5 m/s (2 Bft) SO67.5 130 0 min 6,72 klux -8,1 C -0,3 C
03.02.2008 16:27 1,9 C 2,3 C -0,1 C 49 % 1013 hPa 0,0 l/m 3,3 m/s (2 Bft) O22.5 95 0 min 6,14 klux -7,7 C -2,8 C
03.02.2008 16:31 2,0 C 2,1 C -0,2 C 48 % 1013 hPa 0,0 l/m 3,1 m/s (2 Bft) O-SO45 105 0 min 5,52 klux -7,8 C -2,0 C
03.02.2008 16:37 1,8 C 1,9 C -0,4 C 50 % 1013 hPa 0,0 l/m 4,1 m/s (3 Bft) O45 90 0 min 4,59 klux -7,5 C -4,7 C
03.02.2008 16:42 1,7 C 1,9 C -0,3 C 50 % 1013 hPa 0,0 l/m 3,0 m/s (2 Bft) O-SO22.5 105 0 min 3,99 klux -7,6 C -2,2 C
03.02.2008 16:47 1,8 C 1,7 C -0,2 C 50 % 1012 hPa 0,0 l/m 4,2 m/s (3 Bft) O22.5 100 0 min 3,37 klux -7,5 C -4,9 C
03.02.2008 16:52 1,7 C 1,5 C -0,4 C 50 % 1012 hPa 0,0 l/m 4,2 m/s (3 Bft) O45 100 0 min 2,36 klux -7,6 C -4,9 C
03.02.2008 16:57 1,5 C 1,3 C -0,6 C 51 % 1012 hPa 0,0 l/m 4,4 m/s (3 Bft) O67.5 85 0 min 1,56 klux -7,5 C -5,7 C
03.02.2008 17:02 1,5 C 1,3 C -0,5 C 51 % 1012 hPa 0,0 l/m 4,6 m/s (3 Bft) O45 80 0 min 1,34 klux -7,5 C -6,0 C
03.02.2008 17:07 1,5 C 1,1 C -0,6 C 51 % 1012 hPa 0,0 l/m 4,0 m/s (3 Bft) O45 85 0 min 940 lux -7,5 C -4,8 C
03.02.2008 17:12 1,3 C 1,0 C -0,7 C 51 % 1012 hPa 0,0 l/m 3,1 m/s (2 Bft) O45 90 0 min 616 lux -7,7 C -2,9 C
03.02.2008 17:17 1,3 C 0,9 C -0,8 C 52 % 1012 hPa 0,0 l/m 4,1 m/s (3 Bft) O45 95 0 min 482 lux -7,4 C -5,2 C
03.02.2008 17:22 1,2 C 0,7 C -1,0 C 52 % 1012 hPa 0,0 l/m 3,0 m/s (2 Bft) O45 90 0 min 229 lux -7,5 C -2,8 C
03.02.2008 17:27 1,0 C 0,5 C -1,3 C 53 % 1012 hPa 0,0 l/m 3,1 m/s (2 Bft) O-NO45 75 0 min 184 lux -7,5 C -3,1 C
03.02.2008 17:32 0,8 C 0,4 C -1,1 C 56 % 1012 hPa 0,0 l/m 3,2 m/s (2 Bft) O-NO22.5 65 0 min 111 lux -7,0 C -3,8 C
03.02.2008 17:37 0,8 C 0,3 C -1,3 C 57 % 1012 hPa 0,0 l/m 2,2 m/s (2 Bft) O-NO22.5 65 0 min 63 lux -6,7 C -0,8 C
03.02.2008 17:42 0,6 C 0,1 C -1,4 C 57 % 1012 hPa 0,0 l/m 3,5 m/s (3 Bft) O22.5 85 0 min 31 lux -6,9 C -4,7 C
03.02.2008 17:47 0,5 C 0,0 C -1,2 C 58 % 1012 hPa 0,0 l/m 3,3 m/s (2 Bft) NO67.5 55 0 min 17 lux -6,8 C -4,2 C
03.02.2008 17:52 0,6 C -0,1 C -1,2 C 59 % 1012 hPa 0,0 l/m 2,9 m/s (2 Bft) O22.5 80 0 min 11 lux -6,5 C -3,0 C
03.02.2008 17:57 0,3 C -0,1 C -1,5 C 58 % 1012 hPa 0,0 l/m 2,7 m/s (2 Bft) O-SO45 105 0 min 8 lux -7,0 C -2,9 C
03.02.2008 18:02 0,4 C -0,4 C -1,4 C 59 % 1012 hPa 0,0 l/m 1,5 m/s (1 Bft) O-NO22.5 70 0 min 4 lux -6,7 C 0,4 C
03.02.2008 18:07 0,5 C -0,4 C -1,5 C 60 % 1012 hPa 0,0 l/m 2,1 m/s (2 Bft) O45 80 0 min 0 lux -6,3 C -0,5 C
03.02.2008 18:12 0,5 C -0,5 C -1,6 C 60 % 1012 hPa 0,0 l/m 2,4 m/s (2 Bft) O22.5 95 0 min 0 lux -6,3 C -1,8 C
03.02.2008 18:17 0,2 C -0,6 C -1,6 C 60 % 1012 hPa 0,0 l/m 3,0 m/s (2 Bft) NO45 55 0 min 0 lux -6,6 C -3,8 C
03.02.2008 18:22 0,2 C -0,7 C -1,6 C 61 % 1012 hPa 0,0 l/m 2,1 m/s (2 Bft) O22.5 85 0 min 0 lux -6,4 C -1,0 C
03.02.2008 18:27 0,4 C -0,7 C -1,5 C 61 % 1012 hPa 0,0 l/m 2,5 m/s (2 Bft) O45 80 0 min 0 lux -6,2 C -2,2 C
03.02.2008 18:32 0,1 C -0,9 C -1,7 C 62 % 1012 hPa 0,0 l/m 0,1 m/s (0 Bft) O 90 0 min 0 lux -6,3 C 0,1 C
03.02.2008 18:37 -0,1 C -1,0 C -2,0 C 62 % 1012 hPa 0,0 l/m 1,3 m/s (1 Bft) O-NO22.5 65 0 min 0 lux -6,5 C -0,1 C
03.02.2008 18:42 -0,2 C -1,0 C -1,8 C 65 % 1012 hPa 0,0 l/m 0,2 m/s (0 Bft) NO 45 0 min 0 lux -6,0 C -0,2 C
03.02.2008 18:47 -0,1 C -1,1 C -1,7 C 65 % 1011 hPa 0,0 l/m 1,1 m/s (1 Bft) NO 35 0 min 0 lux -5,9 C -0,1 C
03.02.2008 18:52 -0,1 C -1,2 C -1,8 C 65 % 1011 hPa 0,0 l/m 0,2 m/s (0 Bft) N-NO 25 0 min 0 lux -5,9 C -0,1 C
03.02.2008 18:57 -0,1 C -1,2 C -1,6 C 65 % 1011 hPa 0,0 l/m 1,0 m/s (1 Bft) N-NO 15 0 min 0 lux -5,9 C -0,1 C
03.02.2008 19:02 -0,1 C -1,2 C -1,8 C 65 % 1011 hPa 0,0 l/m 0,0 m/s (0 Bft) N 10 0 min 0 lux -5,9 C -0,1 C
03.02.2008 19:07 -0,6 C -1,3 C -1,9 C 65 % 1011 hPa 0,0 l/m 0,0 m/s (0 Bft) N 10 0 min 0 lux -6,3 C -0,6 C
03.02.2008 19:12 -0,9 C -1,4 C -2,2 C 67 % 1011 hPa 0,0 l/m 0,0 m/s (0 Bft) N 10 0 min 0 lux -6,2 C -0,9 C
03.02.2008 19:17 -1,2 C -1,4 C -2,2 C 68 % 1011 hPa 0,0 l/m 0,0 m/s (0 Bft) N 10 0 min 0 lux -6,3 C -1,2 C
03.02.2008 19:22 -1,2 C -1,6 C -2,5 C 70 % 1011 hPa 0,0 l/m 0,0 m/s (0 Bft) N 10 0 min 0 lux -6,0 C -1,2 C
03.02.2008 19:27 -1,2 C -1,7 C -2,4 C 72 % 1011 hPa 0,0 l/m 0,1 m/s (0 Bft) N 10 0 min 0 lux -5,6 C -1,2 C
03.02.2008 19:32 -0,9 C -1,7 C -2,2 C 73 % 1011 hPa 0,0 l/m 1,8 m/s (2 Bft) NO45 55 0 min 0 lux -5,1 C -1,1 C
03.02.2008 19:37 -0,7 C -1,8 C -2,2 C 73 % 1011 hPa 0,0 l/m 1,1 m/s (1 Bft) N-NO22.5 30 0 min 0 lux -4,9 C -0,7 C
03.02.2008 19:42 -0,6 C -1,8 C -2,1 C 71 % 1011 hPa 0,0 l/m 1,6 m/s (2 Bft) O-NO22.5 60 0 min 0 lux -5,2 C -0,6 C
03.02.2008 19:47 -1,1 C -1,8 C -2,5 C 70 % 1011 hPa 0,0 l/m 0,0 m/s (0 Bft) O 95 0 min 0 lux -5,9 C -1,1 C
03.02.2008 19:52 -1,3 C -1,8 C -2,6 C 70 % 1011 hPa 0,0 l/m 0,0 m/s (0 Bft) O 95 0 min 0 lux -6,0 C -1,3 C
03.02.2008 19:57 -1,6 C -1,9 C -2,7 C 72 % 1011 hPa 0,0 l/m 0,0 m/s (0 Bft) O 90 0 min 0 lux -6,0 C -1,6 C
03.02.2008 20:02 -1,5 C -2,1 C -2,8 C 73 % 1011 hPa 0,0 l/m 0,0 m/s (0 Bft) O 95 0 min 0 lux -5,7 C -1,5 C
03.02.2008 20:07 -1,5 C -2,1 C -2,8 C 73 % 1011 hPa 0,0 l/m 0,0 m/s (0 Bft) O 95 0 min 0 lux -5,7 C -1,5 C
03.02.2008 20:12 -1,3 C -2,1 C -2,7 C 76 % 1011 hPa 0,0 l/m 0,4 m/s (1 Bft) O-NO45 60 0 min 0 lux -5,0 C -1,3 C
03.02.2008 20:17 -0,7 C -2,2 C -2,5 C 76 % 1011 hPa 0,0 l/m 1,1 m/s (1 Bft) NO22.5 55 0 min 0 lux -4,4 C -0,7 C
03.02.2008 20:22 -0,4 C -2,2 C -2,2 C 75 % 1011 hPa 0,0 l/m 3,3 m/s (2 Bft) O-NO45 70 0 min 0 lux -4,3 C -5,3 C
03.02.2008 20:27 -0,3 C -2,1 C -2,2 C 71 % 1011 hPa 0,0 l/m 2,7 m/s (2 Bft) O22.5 80 0 min 0 lux -4,9 C -3,5 C
03.02.2008 20:32 -0,7 C -2,1 C -2,5 C 70 % 1011 hPa 0,0 l/m 0,1 m/s (0 Bft) O-SO 110 0 min 0 lux -5,5 C -0,7 C
03.02.2008 20:37 -1,1 C -2,2 C -2,5 C 70 % 1011 hPa 0,0 l/m 1,8 m/s (2 Bft) O-SO22.5 105 0 min 0 lux -5,9 C -1,1 C
03.02.2008 20:42 -1,1 C -2,2 C -2,6 C 70 % 1011 hPa 0,0 l/m 0,0 m/s (0 Bft) O 95 0 min 0 lux -5,9 C -1,1 C
03.02.2008 20:47 -1,3 C -2,3 C -2,5 C 71 % 1011 hPa 0,0 l/m 0,1 m/s (0 Bft) O 95 0 min 0 lux -5,9 C -1,3 C
03.02.2008 20:52 -1,1 C -2,3 C -2,4 C 72 % 1011 hPa 0,0 l/m 1,9 m/s (2 Bft) O22.5 80 0 min 0 lux -5,5 C -1,5 C
03.02.2008 20:57 -1,1 C -2,3 C -2,7 C 72 % 1011 hPa 0,0 l/m 1,4 m/s (1 Bft) O-NO22.5 70 0 min 0 lux -5,5 C -1,1 C
03.02.2008 21:02 -1,2 C -2,4 C -2,9 C 72 % 1011 hPa 0,0 l/m 0,0 m/s (0 Bft) O-NO 60 0 min 0 lux -5,6 C -1,2 C
03.02.2008 21:07 -1,3 C -2,4 C -2,9 C 72 % 1011 hPa 0,0 l/m 0,3 m/s (1 Bft) O-NO22.5 70 0 min 0 lux -5,7 C -1,3 C
03.02.2008 21:12 -1,0 C -2,5 C -2,8 C 73 % 1010 hPa 0,0 l/m 1,4 m/s (1 Bft) O-NO22.5 70 0 min 0 lux -5,2 C -1,0 C
03.02.2008 21:17 -0,9 C -2,5 C -2,7 C 74 % 1010 hPa 0,0 l/m 1,8 m/s (2 Bft) O-NO22.5 70 0 min 0 lux -4,9 C -0,9 C
03.02.2008 21:21 -1,0 C -2,5 C -2,6 C 73 % 1010 hPa 0,0 l/m 1,2 m/s (1 Bft) O22.5 100 0 min 0 lux -5,2 C -1,0 C
03.02.2008 21:27 -0,9 C -2,5 C -2,4 C 72 % 1010 hPa 0,0 l/m 2,9 m/s (2 Bft) O22.5 85 0 min 0 lux -5,3 C -4,7 C
03.02.2008 21:32 -0,4 C -2,5 C -2,1 C 71 % 1010 hPa 0,0 l/m 2,7 m/s (2 Bft) O-SO22.5 110 0 min 0 lux -5,0 C -3,6 C
03.02.2008 21:37 -0,4 C -2,4 C -2,0 C 69 % 1010 hPa 0,0 l/m 3,3 m/s (2 Bft) O-NO45 75 0 min 0 lux -5,4 C -5,5 C
03.02.2008 21:42 -0,6 C -2,3 C -2,2 C 69 % 1010 hPa 0,0 l/m 2,7 m/s (2 Bft) O45 100 0 min 0 lux -5,6 C -3,9 C
03.02.2008 21:47 -0,5 C -2,3 C -2,3 C 69 % 1010 hPa 0,0 l/m 2,4 m/s (2 Bft) O-NO45 70 0 min 0 lux -5,5 C -2,9 C
03.02.2008 21:52 -0,5 C -2,2 C -2,3 C 69 % 1010 hPa 0,0 l/m 3,8 m/s (3 Bft) O-SO45 105 0 min 0 lux -5,5 C -6,6 C
03.02.2008 21:57 -0,7 C -2,3 C -2,3 C 69 % 1010 hPa 0,0 l/m 2,2 m/s (2 Bft) O22.5 95 0 min 0 lux -5,7 C -2,2 C
03.02.2008 22:02 -1,2 C -2,3 C -2,7 C 69 % 1010 hPa 0,0 l/m 0,0 m/s (0 Bft) O45 90 0 min 0 lux -6,1 C -1,2 C
03.02.2008 22:07 -1,4 C -2,4 C -2,8 C 71 % 1010 hPa 0,0 l/m 1,8 m/s (2 Bft) O22.5 85 0 min 0 lux -6,0 C -1,4 C
03.02.2008 22:12 -1,2 C -2,4 C -2,8 C 72 % 1010 hPa 0,0 l/m 2,0 m/s (2 Bft) O22.5 85 0 min 0 lux -5,6 C -2,1 C
03.02.2008 22:17 -0,8 C -2,5 C -2,7 C 73 % 1010 hPa 0,0 l/m 3,2 m/s (2 Bft) O22.5 90 0 min 0 lux -5,0 C -5,5 C
03.02.2008 22:22 -0,8 C -2,5 C -2,7 C 72 % 1010 hPa 0,0 l/m 3,0 m/s (2 Bft) O45 80 0 min 0 lux -5,2 C -5,0 C
03.02.2008 22:27 -1,1 C -2,5 C -3,1 C 72 % 1009 hPa 0,0 l/m 1,8 m/s (2 Bft) O-SO22.5 115 0 min 0 lux -5,5 C -1,2 C
03.02.2008 22:32 -1,0 C -2,5 C -2,9 C 72 % 1009 hPa 0,0 l/m 2,0 m/s (2 Bft) O-NO45 65 0 min 0 lux -5,4 C -1,7 C
03.02.2008 22:37 -1,3 C -2,6 C -3,0 C 72 % 1009 hPa 0,0 l/m 2,4 m/s (2 Bft) O22.5 85 0 min 0 lux -5,7 C -3,6 C
03.02.2008 22:42 -1,2 C -2,6 C -2,9 C 73 % 1009 hPa 0,0 l/m 1,1 m/s (1 Bft) O-NO22.5 70 0 min 0 lux -5,4 C -1,2 C
03.02.2008 22:47 -1,5 C -2,7 C -3,0 C 73 % 1009 hPa 0,0 l/m 2,3 m/s (2 Bft) O-NO22.5 75 0 min 0 lux -5,7 C -3,3 C
03.02.2008 22:52 -1,5 C -2,7 C -3,2 C 73 % 1009 hPa 0,0 l/m 1,6 m/s (2 Bft) O-NO22.5 65 0 min 0 lux -5,7 C -1,5 C
03.02.2008 22:57 -1,3 C -2,7 C -3,1 C 74 % 1009 hPa 0,0 l/m 0,8 m/s (1 Bft) O-NO 60 0 min 0 lux -5,3 C -1,3 C
03.02.2008 23:02 -1,1 C -2,7 C -3,0 C 74 % 1009 hPa 0,0 l/m 2,5 m/s (2 Bft) O-NO45 65 0 min 0 lux -5,1 C -3,8 C
03.02.2008 23:07 -1,2 C -2,7 C -3,1 C 74 % 1009 hPa 0,0 l/m 1,9 m/s (2 Bft) O22.5 80 0 min 0 lux -5,2 C -1,5 C
03.02.2008 23:12 -1,1 C -2,7 C -2,8 C 73 % 1009 hPa 0,0 l/m 2,8 m/s (2 Bft) O22.5 100 0 min 0 lux -5,3 C -4,8 C
03.02.2008 23:17 -0,8 C -2,6 C -2,8 C 73 % 1009 hPa 0,0 l/m 3,0 m/s (2 Bft) O-SO22.5 105 0 min 0 lux -5,0 C -5,0 C
03.02.2008 23:22 -0,8 C -2,6 C -2,6 C 73 % 1009 hPa 0,0 l/m 2,8 m/s (2 Bft) O22.5 100 0 min 0 lux -5,0 C -4,3 C
03.02.2008 23:27 -0,9 C -2,5 C -2,5 C 71 % 1009 hPa 0,0 l/m 3,6 m/s (3 Bft) O-SO45 105 0 min 0 lux -5,5 C -6,7 C
03.02.2008 23:32 -1,0 C -2,4 C -2,6 C 71 % 1008 hPa 0,0 l/m 4,5 m/s (3 Bft) O45 90 0 min 0 lux -5,6 C -9,0 C
03.02.2008 23:37 -1,2 C -2,4 C -2,9 C 71 % 1009 hPa 0,0 l/m 1,8 m/s (2 Bft) N-NO67.5 15 0 min 0 lux -5,8 C -1,3 C
03.02.2008 23:42 -1,3 C -2,4 C -2,9 C 72 % 1009 hPa 0,0 l/m 0,6 m/s (1 Bft) N-NO45 15 0 min 0 lux -5,7 C -1,3 C
03.02.2008 23:47 -1,1 C -2,4 C -2,7 C 73 % 1009 hPa 0,0 l/m 2,6 m/s (2 Bft) O-NO45 60 0 min 0 lux -5,3 C -4,1 C
03.02.2008 23:52 -1,2 C -2,4 C -2,8 C 73 % 1008 hPa 0,0 l/m 2,0 m/s (2 Bft) O-NO22.5 60 0 min 0 lux -5,4 C -2,0 C
03.02.2008 23:57 -1,2 C -2,4 C -2,9 C 73 % 1008 hPa 0,0 l/m 1,3 m/s (1 Bft) O-NO45 60 0 min 0 lux -5,4 C -1,2 C
_ Min-Zeit 06:37 08:07 06:32 15:17 23:32 - 00:02 - - - - 15:17 12:42
Minimum _ -6,2 C -7,2 C -7,4 C 43 % 1008 hPa - 0,0 m/s (0 Bft) - - - - -8,9 C -9,9 C
_ Max-Zeit 14:57 12:22 15:12 00:02 00:02 00:02 12:42 - - 09:52 11:37 09:57 11:52
Maximum _ 2,5 C 9,3 C 0,5 C 89 % 1020 hPa 0,0 l/m 6,9 m/s
O-SO (4 Bft)
- - 6 min 39,2 klux -2,8 C 0,8 C
Durchschnitt _ -1,8 C -2,0 C -3,4 C 71 % 1016 hPa #0,0 l/m 1,5 m/s (1 Bft) O-SO - #6:40 h 8,63 klux -6,7 C -4,0 C